This is the latest recevied weather packets stored in our database for station/object 9M8ZAL-13. If no packets are shown the sender has not sent any weather packets the latest 10 day(s).
| Time | Temp. | Humidity | Pressure | Rain* | Wind** | Luminosity | Snow |
|---|---|---|---|---|---|---|---|
| 1777685608 | 30° C | - | 1009.4 hPa | - | - | 1006 W/m² | - |
| 1777685008 | 29.44° C | - | 1009.4 hPa | - | - | 1005 W/m² | - |
| 1777684407 | 28.33° C | - | 1009.3 hPa | - | - | 1004 W/m² | - |
| 1777683807 | 28.33° C | - | 1009.1 hPa | - | - | 1005 W/m² | - |
| 1777683207 | 28.33° C | - | 1009.1 hPa | - | - | 1005 W/m² | - |
| 1777682607 | 28.33° C | - | 1009.1 hPa | - | - | 1005 W/m² | - |
| 1777682007 | 28.33° C | - | 1009.1 hPa | - | - | 1005 W/m² | - |
| 1777681407 | 28.33° C | - | 1008.8 hPa | - | - | 1005 W/m² | - |
| 1777680807 | 27.78° C | - | 1008.8 hPa | - | - | 1004 W/m² | - |
| 1777680207 | 27.78° C | - | 1008.8 hPa | - | - | 1003 W/m² | - |
| 1777679607 | 27.78° C | - | 1008.8 hPa | - | - | 1002 W/m² | - |
| 1777679007 | 27.22° C | - | 1008.7 hPa | - | - | 1002 W/m² | - |
| 1777678407 | 27.22° C | - | 1008.4 hPa | - | - | 1002 W/m² | - |
| 1777677807 | 27.78° C | - | 1008.1 hPa | - | - | 1002 W/m² | - |
| 1777677207 | 27.22° C | - | 1008 hPa | - | - | 1002 W/m² | - |
| 1777676607 | 27.22° C | - | 1008 hPa | - | - | 1002 W/m² | - |
| 1777676007 | 27.22° C | - | 1007.9 hPa | - | - | 1001 W/m² | - |
| 1777675407 | 26.67° C | - | 1007.9 hPa | - | - | 1001 W/m² | - |
| 1777674807 | 26.67° C | - | 1007.7 hPa | - | - | 1000 W/m² | - |
| 1777674208 | 26.67° C | - | 1007.7 hPa | - | - | 1000 W/m² | - |
| 1777673607 | 26.67° C | - | 1007.8 hPa | - | - | 1000 W/m² | - |
| 1777673007 | 26.67° C | - | 1007.8 hPa | - | - | 1000 W/m² | - |
| 1777672407 | 27.22° C | - | 1007.5 hPa | - | - | 1000 W/m² | - |
| 1777671806 | 27.22° C | - | 1007.5 hPa | - | - | 1000 W/m² | - |
| 1777671207 | 27.22° C | - | 1007.4 hPa | - | - | 1000 W/m² | - |
* Rain since midnight (hover to see other rain measurements)
** Current wind speed in m/s (hover to see current wind gust speed)